ISARA (43050 NORAD) Tracking and Keplerian Element Data

This shows tracking and keplerian element data for the satellite.

Feedback or suggestion? Click here.




ElementValue
Catalog43050
NameISARA
Epoch Orbit3428
Epoch Day198.76556057
Epoch Year2018
RAAN251.7483
Inclination51.6381
Eccentricity0.0002833
Argument of Perigee37.7221
Mean Anonmoly322.3962
Mean Motion15.39856731
Decay Rate3.573E-05
L11 43050U 17071P 18198.76556057 .00003573 00000-0 98449-4 0 9992
L22 43050 51.6381 251.7483 0002833 37.7221 322.3962 15.39856731 34288

Live tracking and technical data element details for ISARA (NORAD 43050). ISARA can be tracked NOW for your location showing map with azimuth and elevation plus other details from your city location.

Track the satellite on the map from your city or location and see movement details for azimuth, elevation, latitude, longitude, range, height, and movement on the map or in text.







IsCatalogInMostPopularTable: catalog: 43050, numindb: 92
Update: records affected: 1



GetName: 43050 ISARA

Hit Count: updated at: Thu, 19 Jul 2018 03:51:04 GMT